STARLINK-11671, 64319

Orbit data source: Space-Track

STARLINK-11671, 64319 is a payload satellite owned by SpaceX/Seattle (US) in LEO that was launched on Tue, 10 Jun 2025 UTC via an FALCON 9 launch vehicle from the Air Force Eastern Test Range (AFETR). Payload-class satellites include a variety of spacecraft equipped with specific instruments for various scientific and technological missions. These include communications satellites like Starlink; space stations such as the ISS; scientific satellites like the Hubble; Earth observation satellites from companies like Planet Labs, Umbra, and HawkEye 360; GPS; miniature CubeSats for education and research; and military/defense satellites.

Loading next visibility...
Identifier
64319, 2025-124C
Orbit
LEO
Country
Flag of USUS
Related business
Manufacturer
SpaceX/Seattle
Mission
Operational Commercial Communications
Bus & Motor
STARLINK V2MD, Unknown motor
Mass
960 kg wet, ~910 kg dry
Launch date (UTC)
2025-06-10 (9 months ago)
Launch vehicle
FALCON 9
Launch site
Air Force Eastern Test Range (AFETR)
Object type
Payload
Rocket body
Debris
Shape & HBR
Box + 2 Pan, 18.1 m
Radar Cross Section
36.964 m², Large (>1 m²)

Expand to show TLE details & history
Last TLE update: 1 day ago

TLE from 1 day ago
0 STARLINK-11671
1 64319U 25124C   26073.82424418  .00294237  00000-0  22041-2 0  9996
2 64319  42.9989 358.1114 0001214 251.6198 108.4538 15.70971953 43642
Epoch: 2026-03-14T19:46Z
TLE epoch observation values (Epoch: 2026-03-14T19:46:54.697Z)
Latitude
0.00002°
Longitude
-111.05637°
Altitude
356.148 km
Speed
7.697 km/s
True Right ascension
23h 52m 26s
True Declination
0° 00' 00"
Sunlit
Object was in daylight at epoch
Visualization orbit readout
Latitude
Unknown
Longitude
Unknown
Altitude
Unknown
Speed
Unknown
Apparent Right ascension
Unknown
Apparent Declination
Unknown
Sunlit
N/A
Visualization observer readout
Local Sidereal Time
01:13:34
Azimuth
Unknown
Elevation
Unknown
Doppler factor
Unknown
Orbital elements
Apogee altitude
358.918 km
Perigee altitude
357.282 km
Semi-major axis
6,736.237 km
Eccentricity
0.00012
Inclination
42.9989°
RAAN
358.1114°
Arg. of periapsis
251.6198°
True anomaly
108.467°
Mean anomaly
108.4538°
Eccentric anomaly
108.4604°
Mean motion
3.9257 °/min
Orbital period
91.7 mins
BSTAR
0.0022041
Loading maneuver chart data...
Computing Atmospheric mass density...
Loading historical data...
Loading historical data...
Loading historical data...
Loading historical data...
Loading historical data...
Loading historical data...
Loading historical data...

Documentation

Showing up to 5 results
|